This is the latest recevied weather packets stored in our database for station/object YM7KGL-1. If no packets are shown the sender has not sent any weather packets the latest 10 day(s).
| Time | Temp. | Humidity | Pressure | Rain* | Wind** | Luminosity | Snow |
|---|---|---|---|---|---|---|---|
| 1778221785 | 22.78° C | 50% | 1019.2 hPa | - | - | - | - |
| 1778220885 | 22.22° C | 50% | 1019.2 hPa | - | - | - | - |
| 1778220431 | 21.67° C | 51% | 1019.2 hPa | - | - | - | - |
| 1778219984 | 21.67° C | 51% | 1019.2 hPa | - | - | - | - |
| 1778219310 | 21.11° C | 51% | 1019.3 hPa | - | - | - | - |
| 1778218410 | 20° C | 51% | 1019.1 hPa | - | - | - | - |
| 1778217510 | 19.44° C | 52% | 1019 hPa | - | - | - | - |
| 1778216610 | 18.33° C | 52% | 1019 hPa | - | - | - | - |
| 1778215877 | 17.78° C | 53% | 1018.9 hPa | - | - | - | - |
| 1778214976 | 16.67° C | 54% | 1019.1 hPa | - | - | - | - |
| 1778214076 | 16.11° C | 54% | 1018.9 hPa | - | - | - | - |
| 1778213176 | 15° C | 54% | 1019 hPa | - | - | - | - |
| 1778213060 | 15° C | 54% | 1019.1 hPa | - | - | - | - |
| 1778212159 | 14.44° C | 54% | 1019.1 hPa | - | - | - | - |
| 1778211259 | 13.33° C | 55% | 1019.1 hPa | - | - | - | - |
| 1778210358 | 12.78° C | 54% | 1018.9 hPa | - | - | - | - |
| 1778209457 | 12.78° C | 54% | 1018.7 hPa | - | - | - | - |
| 1778208875 | 12.78° C | 54% | 1018.7 hPa | - | - | - | - |
| 1778207975 | 12.78° C | 54% | 1018.5 hPa | - | - | - | - |
| 1778207232 | 12.78° C | 54% | 1018.3 hPa | - | - | - | - |
| 1778207074 | 12.78° C | 54% | 1018.4 hPa | - | - | - | - |
| 1778206174 | 12.78° C | 54% | 1018.3 hPa | - | - | - | - |
| 1778205351 | 12.78° C | 54% | 1018.3 hPa | - | - | - | - |
| 1778204451 | 13.33° C | 54% | 1018.1 hPa | - | - | - | - |
| 1778203550 | 13.33° C | 54% | 1018.1 hPa | - | - | - | - |
* Rain since midnight (hover to see other rain measurements)
** Current wind speed in m/s (hover to see current wind gust speed)